Observations for Trim Market St
| Time | AQI | Temp °C | Hum % | Pres Pa | CO μg/m³ | H₂S μg/m³ | NO μg/m³ | NO₂ μg/m³ | O₃ μg/m³ | SO₂ μg/m³ | PM1 μg/m³ | PM2.5 μg/m³ | PM10 μg/m³ |
|---|---|---|---|---|---|---|---|---|---|---|---|---|---|
| Wednesday 26 August 2026 | |||||||||||||
| 22:49 | 3 | 17.6 | 77 | 2,147,483,647 | 0.19 | 0 | 1.89 | 9.76 | 60.61 | 0 | 16.39 | 18.43 | 29.77 |
| 22:47 | 3 | 17.6 | 77 | 2,147,483,647 | 0.23 | 0 | 1.89 | 11.41 | 58.23 | 0 | 16.39 | 19.41 | 29.81 |
| 22:43 | 3 | 17.7 | 77 | 2,211 | 0.21 | 0 | 1.87 | 20.78 | 56.18 | 0 | 14.96 | 18.47 | 28.68 |
| 22:36 | 3 | 17.7 | 76 | 9,914 | 0.2 | 0 | 1.87 | 14.14 | 58.13 | 0 | 15.68 | 19.01 | 29.4 |
| 22:35 | 3 | 17.7 | 76 | 11,059 | 0.18 | 0 | 1.87 | 14.48 | 59.72 | 0 | 14.96 | 18.53 | 28.81 |
| 22:34 | 3 | 17.8 | 76 | 12,191 | 0.19 | 0 | 1.85 | 10.97 | 62.36 | 0 | 14.96 | 17.58 | 26.47 |
| 22:33 | 3 | 17.8 | 76 | 13,376 | 0.2 | 0 | 1.84 | 14.64 | 60.07 | 0 | 15.68 | 19.03 | 29.45 |
| 22:32 | 3 | 17.8 | 76 | 14,698 | 0.2 | 0 | 1.85 | 12.44 | 61.24 | 0 | 13.54 | 16.17 | 24.13 |
| 22:31 | 3 | 17.8 | 76 | 15,809 | 0.25 | 0 | 1.85 | 13.77 | 62.26 | 0 | 14.96 | 19.04 | 29.49 |
| 22:30 | 3 | 17.8 | 76 | 16,834 | 0.29 | 0 | 1.86 | 12.26 | 61.68 | 0 | 15.68 | 16.65 | 27.12 |
| 22:29 | 3 | 17.9 | 76 | 17,748 | 0.19 | 0 | 1.84 | 10.16 | 60.81 | 0 | 15.68 | 18.58 | 28.33 |
| 22:28 | 3 | 17.9 | 75 | 18,677 | 0.28 | 0 | 1.84 | 18.12 | 56.74 | 0 | 13.54 | 18.59 | 28.94 |
| 22:27 | 3 | 17.9 | 75 | 19,540 | 0.28 | 0 | 1.84 | 15.36 | 59.51 | 0 | 14.96 | 17.15 | 25.97 |
| 22:26 | 3 | 17.9 | 75 | 20,150 | 0.22 | 0 | 1.84 | 18.72 | 58.35 | 0 | 14.96 | 16.68 | 25.39 |
| 22:25 | 3 | 17.9 | 75 | 20,761 | 0.19 | 0 | 1.84 | 11.48 | 59.5 | 0 | 13.54 | 16.2 | 23.6 |
| 22:24 | 3 | 17.9 | 75 | 21,368 | 0.2 | 0 | 1.84 | 11.55 | 60.29 | 0 | 14.96 | 17.17 | 27.2 |
| 22:23 | 3 | 18 | 75 | 21,835 | 0.19 | 0 | 1.83 | 9.49 | 65.41 | 0 | 14.25 | 17.66 | 26.02 |
| 22:20 | 3 | 18 | 75 | 22,544 | 0.2 | 0 | 1.82 | 11.6 | 62.21 | 0 | 13.54 | 16.23 | 23.65 |
| 22:18 | 3 | 18 | 75 | 23,424 | 0.23 | 0 | 1.85 | 9.46 | 65.84 | 0 | 12.83 | 16.72 | 24.86 |
| 22:14 | 3 | 18.1 | 75 | 25,399 | 0.23 | 0 | 2.83 | 33.37 | 49.66 | 0 | 14.96 | 17.7 | 29.11 |